This demonstration page uses our WeatherBlox Daily Observations layout. Learn more.

Left ArrowRight Arrow

41.55636, -103.73856

Hourly Observations for April 8, 2018

Temp ( °F °C ) Dew Point ( °F °C ) Humidity (%) Winds ( mph kmh ) Pressure ( in mb ) Visibility ( mi km ) Precip ( " mm )
12:58 am 00:58 Cloudy 41 5.1 34 1.1 76 76 SSW 8 13 29.58 1002 10 16 N/A
1:58 am 01:58 Cloudy 41 4.8 35 1.7 81 81 WSW 9 15 29.55 1001 10 16 N/A
2:58 am 02:58 Mostly Cloudy 46 7.8 35 1.8 66 66 WSW 21 33 29.48 998 10 16 N/A
3:58 am 03:58 Cloudy 49 9.6 37 2.8 63 63 WNW 21 33 29.50 999 10 16 N/A
4:59 am 04:59 Mostly Cloudy 47 8.1 37 2.5 68 68 NNW 26 43 29.55 1001 10 16 N/A
5:58 am 05:58 Mostly Cloudy 41 4.9 34 0.9 76 76 NNW 17 28 29.61 1003 10 16 N/A
6:58 am 06:58 Mostly Cloudy 38 3.3 32 -0.2 78 78 NNW 15 24 29.66 1005 10 16 N/A
7:58 am 07:58 Mostly Sunny 39 3.7 32 undefined 77 77 NNW 17 28 29.68 1005 10 16 N/A
8:58 am 08:58 Sunny 44 6.8 32 0.2 63 63 NNW 17 28 29.68 1005 10 16 N/A
9:58 am 09:58 Sunny 48 8.9 32 0.1 54 54 NNW 23 37 29.67 1005 10 16 N/A
10:58 am 10:58 Sunny 51 10.8 32 -0.2 47 47 NNW 23 37 29.67 1005 10 16 N/A
11:58 am 11:58 Mostly Sunny 53 11.9 30 -1 41 41 NNW 21 33 29.68 1005 10 16 N/A
12:58 pm 12:58 Mostly Cloudy 53 11.4 27 -2.9 37 37 NW 20 31 29.68 1005 10 16 N/A
1:58 pm 13:58 Mostly Cloudy 54 12.4 23 -5.2 29 29 NW 29 46 29.69 1005 10 16 N/A
2:59 pm 14:59 Mostly Cloudy 54 12 24 -4.5 32 32 N 23 37 29.66 1004 10 16 N/A
3:58 pm 15:58 Mostly Cloudy 53 11.7 25 -4.1 33 33 N 17 28 29.66 1004 10 16 N/A
4:58 pm 16:58 Mostly Cloudy 52 11 25 -3.7 36 36 NNW 24 39 29.70 1006 10 16 N/A
5:58 pm 17:58 Mostly Cloudy with Light Showers 47 8.4 31 -0.7 53 53 NNW 17 28 29.77 1008 10 16 N/A
6:58 pm 18:58 Mostly Cloudy 46 7.9 32 -0.1 57 57 N 22 35 29.81 1010 10 16 N/A
7:58 pm 19:58 Windy with Rain Showers Likely 40 4.6 36 2.1 84 84 N 20 31 29.88 1012 10 16 N/A
8:58 pm 20:58 Mostly Cloudy 38 3.6 35 1.8 88 88 N 14 22 29.90 1012 10 16 N/A
9:58 pm 21:58 Mostly Cloudy with Light Rain 38 3.6 36 2.3 91 91 N 13 20 29.92 1013 10 16 N/A
10:58 pm 22:58 Cloudy with Light Showers 37 2.8 35 1.9 94 94 WNW 10 17 29.93 1014 10 16 0.01 0.25
11:58 pm 23:58 Mostly Cloudy 36 2.3 35 1.6 95 95 NNW 10 17 29.94 1014 10 16 N/A

Powered by AerisWeather